Date String (YYYY-MM-DD hh:mm:ss) UTC,Instrument flags,Ambient pressure (hPa),Sample flow (lpm),Bypass flow (lpm),Sample temperature (°C),Ambient temperature (°C),ASC tube jacket temperature (°C),LED temperature (°C),Box temperature (°C),Sample RH (%),Span deviation,Mass concentration (μg/m³),Mass concentration (μg/m³),Mass concentration (μg/m³)
DateTimeUTC,F1_M11,P_M11,Q1_M11,Q2_M11,T1_M11,T2_M11,T3_M11,T4_M11,T5_M11,U1_M11,ZSPAN_M11,X0_M11,X2_M11,X1_M11
2021-08-25 07:00:00,,0830.3,5.00,0.00,29.6,28.6,00.0,38.6,31.4,15.2,0002.0,0013.02,0006.04,0005.35
2021-08-25 07:01:00,,0830.3,5.00,0.00,29.7,28.7,00.0,38.7,31.5,15.1,0001.9,0014.18,0006.03,0005.34
2021-08-25 07:02:00,,0830.3,5.00,0.00,29.7,28.8,00.0,38.7,31.5,15.0,0002.0,0014.11,0005.93,0005.28
2021-08-25 07:03:00,,0830.4,5.00,0.00,29.7,28.8,00.0,38.7,31.5,15.0,0002.4,0014.10,0005.90,0005.24
2021-08-25 07:04:00,,0830.3,5.01,0.00,29.8,28.9,00.0,38.7,31.6,14.9,0002.6,0012.90,0005.87,0005.21
2021-08-25 07:05:00,,0830.3,5.00,0.00,29.8,28.9,00.0,38.7,31.6,14.9,0002.4,0012.43,0005.80,0005.14
2021-08-25 07:06:00,,0830.4,5.00,0.00,29.8,29.0,00.0,38.8,31.6,14.8,0002.1,0012.48,0005.76,0005.10
2021-08-25 07:07:00,,0830.4,5.00,0.00,29.8,28.7,00.0,38.8,31.6,14.8,0001.9,0012.47,0005.75,0005.08
2021-08-25 07:08:00,,0830.4,5.01,0.00,29.7,26.9,00.0,38.8,31.1,14.8,0001.9,0012.32,0005.75,0005.08
2021-08-25 07:09:00,,0830.4,5.00,0.00,29.6,26.3,00.0,38.7,30.9,14.9,0002.1,0012.37,0005.73,0005.06
2021-08-25 07:10:00,,0830.4,5.00,0.00,29.5,26.5,00.0,38.7,30.9,15.0,0001.7,0012.93,0005.70,0005.04
2021-08-25 07:11:00,,0830.4,5.01,0.00,29.5,26.9,00.0,38.7,31.0,15.0,0001.5,0012.64,0005.68,0005.03
2021-08-25 07:12:00,,0830.4,4.99,0.00,29.4,27.3,00.0,38.6,31.0,15.1,0001.5,0011.66,0005.69,0005.01
2021-08-25 07:13:00,,0830.4,4.99,0.00,29.4,27.6,00.0,38.6,31.1,15.1,0001.5,0011.94,0005.74,0005.01
2021-08-25 07:14:00,,0830.4,5.00,0.00,29.5,27.8,00.0,38.6,31.2,15.1,0001.3,0012.76,0005.76,0004.99
2021-08-25 07:15:00,,0830.4,5.00,0.00,29.5,28.0,00.0,38.6,31.2,15.1,0001.8,0013.05,0005.74,0004.98
2021-08-25 07:16:00,,0830.3,5.00,0.00,29.5,28.2,00.0,38.6,31.3,15.1,0001.9,0013.13,0005.73,0004.97
2021-08-25 07:17:00,,0830.4,5.01,0.00,29.5,28.3,00.0,38.6,31.4,15.1,0002.0,0013.08,0005.74,0004.95
2021-08-25 07:18:00,,0830.5,5.00,0.00,29.6,28.4,00.0,38.6,31.4,15.1,0002.0,0013.36,0005.73,0004.93
2021-08-25 07:19:00,,0830.5,4.99,0.00,29.6,28.5,00.0,38.6,31.4,15.0,0002.4,0013.85,0005.73,0004.92
2021-08-25 07:20:00,,0830.5,5.00,0.00,29.6,28.6,00.0,38.7,31.4,15.0,0002.2,0013.75,0005.74,0004.92
2021-08-25 07:21:00,,0830.5,4.99,0.00,29.6,28.7,00.0,38.7,31.5,15.1,0002.0,0012.92,0005.74,0004.92
2021-08-25 07:22:00,,0830.5,5.01,0.00,29.7,28.8,00.0,38.7,31.5,15.2,0001.9,0013.10,0005.74,0004.92
2021-08-25 07:23:00,,0830.5,5.00,0.00,29.7,28.8,00.0,38.7,31.6,15.4,0002.1,0013.26,0005.71,0004.92
2021-08-25 07:24:00,,0830.5,5.00,0.00,29.8,28.9,00.0,38.7,31.6,15.3,0001.9,0012.91,0005.67,0004.91
2021-08-25 07:25:00,,0830.5,5.00,0.00,29.8,29.0,00.0,38.7,31.6,15.3,0001.5,0012.34,0005.64,0004.92
2021-08-25 07:26:00,,0830.5,5.02,0.00,29.8,29.0,00.0,38.8,31.7,15.2,0000.9,0012.25,0005.64,0004.92
2021-08-25 07:27:00,,0830.5,5.00,0.00,29.8,29.1,00.0,38.8,31.7,15.2,0000.8,0012.49,0005.64,0004.94
2021-08-25 07:28:00,,0830.6,5.00,0.00,29.9,29.0,00.0,38.8,31.7,15.1,0000.6,0013.07,0005.65,0004.97
2021-08-25 07:29:00,,0830.6,5.00,0.00,29.8,27.5,00.0,38.8,31.3,15.2,0000.4,0013.12,0005.65,0004.97
2021-08-25 07:30:00,,0830.6,4.99,0.00,29.6,26.3,00.0,38.8,31.0,15.3,0000.2,0012.60,0005.67,0004.98
2021-08-25 07:31:00,,0830.6,5.00,0.00,29.6,26.4,00.0,38.8,31.0,15.3,0000.5,0012.91,0005.68,0005.00
2021-08-25 07:32:00,,0830.6,5.01,0.00,29.5,26.8,00.0,38.7,31.0,15.4,0001.1,0012.91,0005.70,0005.01
2021-08-25 07:33:00,,0830.6,4.99,0.00,29.5,27.2,00.0,38.7,31.1,15.4,0001.3,0012.53,0005.73,0005.03
2021-08-25 07:34:00,,0830.6,5.01,0.00,29.5,27.6,00.0,38.7,31.1,15.4,0001.5,0011.84,0005.74,0005.05
2021-08-25 07:35:00,,0830.6,5.00,0.00,29.5,27.8,00.0,38.7,31.2,15.5,0001.0,0011.81,0005.80,0005.09
2021-08-25 07:36:00,,0830.6,5.00,0.00,29.5,28.1,00.0,38.7,31.3,15.6,0000.9,0012.13,0005.86,0005.14
2021-08-25 07:37:00,,0830.6,5.00,0.00,29.6,28.2,00.0,38.7,31.3,15.7,0001.4,0012.43,0005.95,0005.18
2021-08-25 07:38:00,,0830.6,5.01,0.00,29.6,28.4,00.0,38.7,31.4,15.8,0001.2,0011.97,0006.01,0005.23
2021-08-25 07:39:00,,0830.6,4.99,0.00,29.6,28.5,00.0,38.7,31.4,15.7,0001.5,0011.90,0006.08,0005.26
2021-08-25 07:40:00,,0830.6,5.00,0.00,29.6,28.6,00.0,38.7,31.4,15.6,0001.6,0011.85,0006.16,0005.31
2021-08-25 07:41:00,,0830.6,5.00,0.00,29.7,28.7,00.0,38.7,31.5,15.4,0001.6,0012.30,0006.21,0005.34
2021-08-25 07:42:00,,0830.6,5.01,0.00,29.7,28.8,00.0,38.7,31.5,15.4,0001.4,0012.64,0006.30,0005.35
2021-08-25 07:43:00,,0830.6,5.01,0.00,29.7,28.8,00.0,38.7,31.5,15.6,0001.3,0012.99,0006.41,0005.39
2021-08-25 07:44:00,,0830.6,5.00,0.00,29.8,28.9,00.0,38.8,31.6,15.5,0001.2,0013.49,0006.46,0005.44
2021-08-25 07:45:00,,0830.6,5.02,0.00,29.8,28.9,00.0,38.8,31.6,15.4,0000.9,0014.10,0006.56,0005.47
2021-08-25 07:46:00,,0830.7,5.00,0.00,29.8,29.0,00.0,38.8,31.7,15.3,0001.2,0014.20,0006.57,0005.47
2021-08-25 07:47:00,,0830.8,5.00,0.00,29.9,29.0,00.0,38.8,31.7,14.8,0001.6,0013.68,0006.53,0005.42
2021-08-25 07:48:00,,0830.8,5.00,0.00,29.9,29.1,00.0,38.8,31.7,14.6,0001.5,0013.18,0006.44,0005.37
2021-08-25 07:49:00,,0830.8,5.00,0.00,29.9,28.1,00.0,38.9,31.5,14.6,0001.7,0013.15,0006.41,0005.31
2021-08-25 07:50:00,,0830.8,5.01,0.00,29.7,26.5,00.0,38.8,31.0,14.8,0001.9,0013.35,0006.33,0005.26
2021-08-25 07:51:00,,0830.8,5.00,0.00,29.6,26.4,00.0,38.8,31.0,14.7,0002.1,0013.54,0006.26,0005.21
2021-08-25 07:52:00,,0830.7,5.00,0.00,29.5,26.8,00.0,38.8,31.0,14.5,0002.3,0014.38,0006.18,0005.15
2021-08-25 07:53:00,,0830.8,5.00,0.00,29.5,27.2,00.0,38.7,31.1,14.4,0002.7,0013.95,0006.07,0005.09
2021-08-25 07:54:00,,0830.7,4.99,0.00,29.5,27.5,00.0,38.7,31.2,14.6,0002.9,0013.86,0005.94,0005.01
2021-08-25 07:55:00,,0830.7,5.00,0.00,29.5,27.8,00.0,38.7,31.3,14.8,0003.2,0013.55,0005.80,0004.91
2021-08-25 07:56:00,,0830.8,5.00,0.00,29.6,28.0,00.0,38.7,31.3,14.3,0003.3,0012.97,0005.65,0004.81
2021-08-25 07:57:00,,0830.8,5.01,0.00,29.6,28.2,00.0,38.7,31.3,14.7,0003.6,0012.79,0005.52,0004.73
2021-08-25 07:58:00,,0830.8,5.00,0.00,29.6,28.4,00.0,38.7,31.4,14.6,0003.4,0013.07,0005.46,0004.70
2021-08-25 07:59:00,,0830.8,4.99,0.00,29.6,28.5,00.0,38.7,31.4,14.5,0003.5,0013.08,0005.42,0004.67
